Regional Weather Roundup
Issued by NWS

Home | Current Version | Previous Version | Text Only | Print | Product List | Glossary On
Versions: 1 2 3 4 5 6 7 8 9 10 11 12 13 14 15 16 17 18 19 20 21 22 23 24 25 26 27 28 29 30 31 32 33 34 35 36 37 38 39 40 41 42 43 44 45 46 47 48 49 50
000
ASUS45 KTFX 042319
RWRMT
MONTANA REGIONAL WEATHER ROUNDUP
NATIONAL WEATHER SERVICE GREAT FALLS MT
500 PM MDT FRI SEP 04 2015

NOTE: "FAIR" INDICATES FEW OR NO CLOUDS BELOW 12000 FEET WITH NO
SIGNIFICANT WEATHER AND/OR OBSTRUCTIONS TO VISIBILITY.

MTZ001>007-043-050000-
WEST OF THE DIVIDE

CITY           SKY/WX    TMP DP  RH WIND       PRES   REMARKS
KALISPELL      MOCLDY    63  40  42 NE21      29.92S
MISSOULA         N/A     62  43  49 SE20      29.90F
BUTTE          LGT RAIN  47  43  86 S3        29.98F
MULLAN PASS    PTSUNNY   51  33  50 CALM      29.93F
DEER LODGE       N/A     50  45  81 CALM      30.00S
EUREKA           N/A     63  43  48 NW8       29.96F
HAMILTON         N/A     59  43  55 N9        29.86F
LIBBY            N/A     64  36  34 W3        29.90S
PLAINS           N/A     69  39  33 E5        29.90F
RONAN            N/A     61  46  57 CALM      29.98F
THOMPSON FALLS   N/A     70  37  29 NE13      29.90F
$$

MTZ008-052>055-050000-
SOUTHWEST MONTANA

CITY           SKY/WX    TMP DP  RH WIND       PRES   REMARKS
BOZEMAN        CLOUDY    62  46  55 NE3       29.93F
DILLON         CLOUDY    56  40  55 N8        29.92F
W YELLOWSTONE  PTSUNNY   66  36  32 W8G18     29.90F
THREE FORKS      N/A     61  52  72 N8        29.94F
TWIN BRIDGES     N/A     56  39  52 N17       29.91F
$$

MTZ009-010-012-014-046-048-049-054-050000-
EAST SLOPES AND CENTRAL MONTANA

CITY           SKY/WX    TMP DP  RH WIND       PRES   REMARKS
CUT BANK       CLOUDY    45  43  93 N17       30.04S FOG
GREAT FALLS    LGT RAIN  51  49  92 CALM      30.00R
MALMSTROM AFB  PTSUNNY   51  50  94 NE8       30.00S
HELENA         PTSUNNY   55  46  71 NW8       29.97F
CONRAD           N/A     51  51 100 NE2       30.04R
$$

MTZ011-013-016-021-045-047-050-051-050000-
NORTH CENTRAL MONTANA

CITY           SKY/WX    TMP DP  RH WIND       PRES   REMARKS
HAVRE          CLOUDY    54  51  90 NE8       30.03R
LEWISTOWN      CLOUDY    58  44  60 N8G16     29.99R
N BAR RANCH    MOCLDY    59  45  58 NE15      30.00R
CHINOOK          N/A     55  52  88 N6        30.02R
FORT BENTON      N/A     54  48  82 NE6       30.01F
$$

MTZ017>020-022>027-061-062-050000-
NORTHEAST MONTANA

CITY           SKY/WX    TMP DP  RH WIND       PRES   REMARKS
GLASGOW        CLOUDY    73  50  44 NE13      29.86R
JORDAN           N/A     72  50  45 N8        29.87S
SIDNEY         CLOUDY    73  57  56 NE8         N/A
WOLF POINT     SUNNY     74  54  49 NE17      29.85F
MALTA            N/A     57  48  72 N16       29.92R
PLENTYWOOD       N/A     66  48  52 NE15G22   29.90R
POPLAR           N/A     72  52  49 N15       29.86S
SCOBEY           N/A     68  46  45 NE13      29.91R
$$

MTZ028>42-056>058-050000-
SOUTHCENTRAL AND SOUTHEAST MONTANA

CITY           SKY/WX    TMP DP  RH WIND       PRES   REMARKS
BAKER          SUNNY     78  58  49 N7        29.85S
BILLINGS       MOSUNNY   69  44  40 NE17      29.88S
LIVINGSTON     PTSUNNY   64  45  49 E9        29.90F
MILES CITY     MOSUNNY   75  55  49 NE7       29.83S
EKALAKA          N/A     81  56  42 E3        29.84S
FORSYTH          N/A     72  46  40 SW7       29.85R
LAUREL           N/A     70  45  40 NE3       29.90R
ROUNDUP          N/A     62  43  49 N15       29.83F
$$

REGIONAL REPORTS...DAKOTAS

CITY           SKY/WX    TMP DP  RH WIND       PRES   REMARKS
WILLISTON      SUNNY     76  57  51 NE14      29.85S
MINOT          PTSUNNY   68  58  70 N17       29.84R
DICKINSON      SUNNY     79  64  60 N9        29.81F
BEACH          MOCLDY    72  63  73 NE7       29.86F
CROSBY           N/A     68  55  64 NE13      29.90R
BISMARCK       SUNNY     88  67  49 CALM      29.78R HX  91
GRAND FORKS    CLOUDY    80  67  64 S8        29.81R
FARGO          CLOUDY    78  71  79 E7        29.82R
BUFFALO SD       N/A     88  58  36 E8        29.74S
RAPID CITY     SUNNY     88  61  40 N8        29.78F
$$

REGIONAL REPORTS...WYOMING/IDAHO/WASHINGTON

CITY           SKY/WX    TMP DP  RH WIND       PRES   REMARKS
GILLETTE       SUNNY     88  42  20 E7        29.82F
SHERIDAN       SUNNY     79  47  32 N13       29.82S
BUFFALO WY     MOSUNNY   83  42  23 N10       29.86F
CODY           PTSUNNY   63  46  55 N14G23    29.87F
YELLOWSTONE LA   N/A     66  32  28 W8        29.98S
IDAHO FALLS    PTSUNNY   77  38  24 W9        29.77F
SALMON         CLOUDY    50  45  81 S10       29.91R THUNDER
BOISE            N/A     72  40  31 W14       29.71S
SPOKANE          N/A     68  28  22 NE9       29.85F
$$

REGIONAL REPORTS...ALBERTA

CITY           SKY/WX    TMP DP  RH WIND       PRES   REMARKS
EDMONTON       CLOUDY    52  39  62 E2        30.17F
CALGARY        LGT RAIN  43  39  87 N16       30.14R
LETHBRIDGE     LGT RAIN  48  46  93 NW14      30.06R
MEDICINE HAT   LGT RAIN  52  50  93 NE7       30.06R FOG
WATERTON GATE    N/A     43  41  93 NE5         N/A
CARDSTON         N/A     43  43 100 N10G18      N/A
MILK RIVER       N/A     46  46 100 N13         N/A
ONEFOUR          N/A     52  48  87 E2          N/A
$$

REGIONAL REPORTS...SASKATCHEWAN

CITY           SKY/WX    TMP DP  RH WIND       PRES   REMARKS
SWIFT CURRENT  PTSUNNY   50  48  93 NE20      30.04F
REGINA         PTSUNNY   61  45  55 N13G20    29.98R
SASKATOON      LGT RAIN  57  41  54 N14       30.09R
CYPRESS HILLS    N/A     48  46  93 NE5         N/A
VAL MARIE        N/A     52  48  87 N14         N/A
ROCKGLEN         N/A     61  45  55 N8          N/A
$$


USA.gov is the U.S. government's official web portal to all federal, state and local government web resources and services.